Back to catalog

ONEWEB-0621

AliveCommunicationsPO
NORAD 55162·PAYLOAD·🇬🇧 United Kingdom

Launched Jan 10, 2023 from Cape Canaveral Space Force Station

Loading…

Next Passes (next 24 hours)

TLE

FreshSource: CelesTrak SupGP

Epoch: Sep 14, 2026, 08:42 UTC

1 55162C 23004Y   26257.36266620 -.00002016  00000+0 -56943-2 0  2577
2 55162  87.8982   3.3407 0001926 107.8589 282.3979 13.11423074    13

Track ONEWEB-0621 in real time with AllMySat

Download on the App Store